This is the latest recevied weather packets stored in our database for station/object WW5JC. If no packets are shown the sender has not sent any weather packets the latest 1 day(s).
| Time | Temp. | Humidity | Pressure | Rain* | Wind** | Luminosity | Snow |
|---|---|---|---|---|---|---|---|
| 1778115458 | 13.33° C | 96% | 1017.3 hPa | 0 mm | - | 1 W/m² | - |
| 1778114851 | 13.33° C | 95% | 1016.9 hPa | 0 mm | - | 2 W/m² | - |
| 1778114549 | 13.33° C | 95% | 1017.2 hPa | 0 mm | - | 2 W/m² | - |
| 1778114245 | 13.33° C | 96% | 1017.1 hPa | 0 mm | - | 2 W/m² | - |
| 1778113940 | 13.33° C | 96% | 1017 hPa | 0 mm | - | 4 W/m² | - |
| 1778113636 | 13.33° C | 96% | 1016.9 hPa | 0 mm | - | 4 W/m² | - |
| 1778113332 | 13.33° C | 96% | 1016.6 hPa | 0 mm | - | 6 W/m² | - |
| 1778112727 | 13.33° C | 95% | 1016.8 hPa | 0 mm | - | 10 W/m² | - |
| 1778112423 | 13.33° C | 96% | 1016.6 hPa | 0 mm | - | 15 W/m² | - |
| 1778111816 | 13.33° C | 95% | 1016.6 hPa | 0 mm | - | 10 W/m² | - |
| 1778110602 | 13.89° C | 94% | 1016.8 hPa | 0 mm | - | 19 W/m² | - |
| 1778109087 | 13.33° C | 95% | 1016.2 hPa | 0 mm | - | 34 W/m² | - |
| 1778108177 | 13.33° C | 96% | 1016 hPa | 0 mm | - | 48 W/m² | - |
| 1778107570 | 13.33° C | 96% | 1016.1 hPa | 0 mm | - | 44 W/m² | - |
| 1778106659 | 13.33° C | 96% | 1016.2 hPa | 0 mm | - | 47 W/m² | - |
| 1778105448 | 13.33° C | 96% | 1016.1 hPa | 0 mm | - | 44 W/m² | - |
| 1778103022 | 13.89° C | 95% | 1016.1 hPa | 0 mm | - | 43 W/m² | - |
| 1778102413 | 13.89° C | 94% | 1015.9 hPa | 0 mm | - | 65 W/m² | - |
| 1778099981 | 13.89° C | 96% | 1015.9 hPa | 0 mm | - | 78 W/m² | - |
| 1778098467 | 14.44° C | 97% | 1015.6 hPa | 0 mm | - | 96 W/m² | - |
| 1778097253 | 14.44° C | 97% | 1016.2 hPa | 0 mm | - | 56 W/m² | - |
| 1778096344 | 13.89° C | 98% | 1015.7 hPa | 0 mm | - | 86 W/m² | - |
| 1778094524 | 13.89° C | 98% | 1015 hPa | 0 mm | - | 76 W/m² | - |
| 1778094220 | 13.33° C | 98% | 1014.6 hPa | 0 mm | - | 158 W/m² | - |
| 1778093912 | 13.89° C | 98% | 1014.3 hPa | 0 mm | - | 97 W/m² | - |
* Rain latest hour (hover to see other rain measurements)
** Current wind speed in m/s (hover to see current wind gust speed)